Egegik, AK

3:37 PM AKDT on July 27, 2017 (GMT -0800)
Egegik

Weather History for PAII - March, 2014

Change the Weather History Date:

Friday, March 28, 2014

  Actual Average (PAKN) Record (PAKN)
Temperature  
Mean Temperature 28 °F -  
Max Temperature 37 °F 33 °F 56 °F (1934)
Min Temperature 19 °F 19 °F -18 °F (1953)
Degree Days  
Heating Degree Days 37    
Moisture  
Dew Point 20 °F    
Average Humidity 72    
Maximum Humidity 93    
Minimum Humidity 45    
Precipitation  
Precipitation 0.00 in - - ()
Sea Level Pressure  
Sea Level Pressure 29.82 in    
Wind  
Wind Speed 4 mph (ENE)    
Max Wind Speed 10 mph    
Max Gust Speed -    
Visibility 10 miles    
Events      
Averages and records for this station are not official NWS values.
T = Trace of Precipitation, MM = Missing Value Source: NWS Daily Summary

Daily Weather History Graph

Daily Weather History Graph

Search for Another Location

Airport or City:

Trip Planner

Search our weather history database for the weather conditions in past years. The results will help you decide how hot, cold, wet, or windy it might be!

Date:

Astronomy

Mar. 28, 2014 Rise Set
Actual Time 8:07 AM AKDT 9:02 PM AKDT
Civil Twilight 7:27 AM AKDT 9:42 PM AKDT
Nautical Twilight 6:39 AM AKDT 10:31 PM AKDT
Astronomical Twilight 5:44 AM AKDT 11:26 PM AKDT
Moon 7:12 AM AKDT (3/28) 6:52 PM AKDT (3/28)
Length of Visible Light 14h 14m
Length of Day
12h 54m
Waning Crescent, 5% of the Moon is Illuminated
Mar 28
Waning Crescent
Mar 30
New
Apr 7
First Quarter
Apr 14
Full
Apr 21
Last Quarter

Hourly Weather History & Observations

Time (AKDT) Temp. Windchill Dew Point Humidity Pressure Visibility Wind Dir Wind Speed Gust Speed Precip Events Conditions
12:36 AM 24.8 °F 17.9 °F 21.2 °F 86% 29.95 in 10.0 mi NNW 5.8 mph - N/A   Clear
12:56 AM 26.6 °F 21.2 °F 21.2 °F 80% 29.95 in 10.0 mi NNW 4.6 mph - N/A   Clear
1:16 AM 24.8 °F 17.9 °F 21.2 °F 86% 29.94 in 10.0 mi NNW 5.8 mph - N/A   Clear
1:36 AM 24.8 °F 19.1 °F 21.2 °F 86% 29.94 in 10.0 mi NNW 4.6 mph - N/A   Clear
1:56 AM 24.8 °F 17.9 °F 21.2 °F 86% 29.94 in 10.0 mi NNW 5.8 mph - N/A   Clear
2:16 AM 24.8 °F 17.9 °F 21.2 °F 86% 29.94 in 10.0 mi NNW 5.8 mph - N/A   Clear
2:36 AM 24.8 °F 19.1 °F 21.2 °F 86% 29.94 in 10.0 mi North 4.6 mph - N/A   Clear
2:56 AM 24.8 °F 20.5 °F 19.4 °F 80% 29.94 in 10.0 mi NNW 3.5 mph - N/A   Clear
3:16 AM 24.8 °F 20.5 °F 19.4 °F 80% 29.93 in 10.0 mi NNW 3.5 mph - N/A   Clear
3:36 AM 24.8 °F 20.5 °F 19.4 °F 80% 29.93 in 10.0 mi NNW 3.5 mph - N/A   Clear
3:56 AM 24.8 °F 19.1 °F 21.2 °F 86% 29.93 in 10.0 mi NNW 4.6 mph - N/A   Clear
4:16 AM 24.8 °F 19.1 °F 19.4 °F 80% 29.92 in 10.0 mi NNW 4.6 mph - N/A   Clear
4:36 AM 24.8 °F 19.1 °F 19.4 °F 80% 29.92 in 10.0 mi NNW 4.6 mph - N/A   Clear
4:56 AM 23.0 °F 18.4 °F 19.4 °F 86% 29.91 in 10.0 mi North 3.5 mph - N/A   Clear
5:16 AM 23.0 °F 17.0 °F 19.4 °F 86% 29.91 in 10.0 mi NNE 4.6 mph - N/A   Clear
5:36 AM 24.8 °F 20.5 °F 19.4 °F 80% 29.91 in 10.0 mi NNE 3.5 mph - N/A   Clear
5:56 AM 23.0 °F 18.4 °F 19.4 °F 86% 29.91 in 10.0 mi NNE 3.5 mph - N/A   Clear
6:16 AM 21.2 °F - 17.6 °F 86% 29.90 in 10.0 mi Calm Calm - N/A   Clear
6:36 AM 23.0 °F - 19.4 °F 86% 29.90 in 10.0 mi Calm Calm - N/A   Clear
6:56 AM 21.2 °F - 15.8 °F 80% 29.89 in 10.0 mi Calm Calm - N/A   Clear
7:16 AM 19.4 °F - 17.6 °F 93% 29.89 in 10.0 mi Calm Calm - N/A   Clear
7:36 AM 21.2 °F - 17.6 °F 86% 29.88 in 10.0 mi Calm Calm - N/A   Clear
7:56 AM 21.2 °F - 19.4 °F 93% 29.88 in 10.0 mi Calm Calm - N/A   Clear
8:16 AM 21.2 °F - 17.6 °F 86% 29.88 in 10.0 mi Calm Calm - N/A   Clear
8:36 AM 21.2 °F - 19.4 °F 93% 29.88 in 10.0 mi Calm Calm - N/A   Clear
8:56 AM 21.2 °F - 17.6 °F 86% 29.88 in 10.0 mi Calm Calm - N/A   Clear
9:16 AM 21.2 °F - 19.4 °F 93% 29.87 in 10.0 mi Calm Calm - N/A   Clear
9:36 AM 23.0 °F 18.4 °F 19.4 °F 86% 29.87 in 10.0 mi East 3.5 mph - N/A   Clear
9:56 AM 24.8 °F 20.5 °F 19.4 °F 80% 29.86 in 10.0 mi ENE 3.5 mph - N/A   Clear
10:16 AM 24.8 °F 20.5 °F 19.4 °F 80% 29.86 in 10.0 mi East 3.5 mph - N/A   Clear
10:36 AM 24.8 °F 17.9 °F 21.2 °F 86% 29.85 in 10.0 mi ENE 5.8 mph - N/A   Clear
10:56 AM 26.6 °F 22.6 °F 21.2 °F 80% 29.85 in 10.0 mi NE 3.5 mph - N/A   Clear
11:16 AM 26.6 °F 22.6 °F 21.2 °F 80% 29.85 in 10.0 mi ENE 3.5 mph - N/A   Clear
11:36 AM 26.6 °F 22.6 °F 21.2 °F 80% 29.84 in 10.0 mi NE 3.5 mph - N/A   Clear
11:56 AM 28.4 °F 24.6 °F 21.2 °F 74% 29.84 in 10.0 mi ENE 3.5 mph - N/A   Clear
12:16 PM 28.4 °F - 21.2 °F 74% 29.83 in 10.0 mi Calm Calm - N/A   Clear
12:36 PM 30.2 °F - 21.2 °F 69% 29.83 in 10.0 mi Calm Calm - N/A   Clear
12:56 PM 30.2 °F - 21.2 °F 69% 29.82 in 10.0 mi Calm Calm - N/A   Clear
1:16 PM 32.0 °F - 21.2 °F 64% 29.82 in 10.0 mi Calm Calm - N/A   Clear
1:36 PM 32.0 °F - 21.2 °F 64% 29.81 in 10.0 mi Calm Calm - N/A   Clear
1:56 PM 33.8 °F 30.8 °F 21.2 °F 60% 29.81 in 10.0 mi WNW 3.5 mph - N/A   Clear
2:16 PM 33.8 °F 30.8 °F 21.2 °F 60% 29.80 in 10.0 mi NW 3.5 mph - N/A   Clear
2:36 PM 33.8 °F - 21.2 °F 60% 29.80 in 10.0 mi Calm Calm - N/A   Clear
2:56 PM 35.6 °F 32.8 °F 21.2 °F 56% 29.79 in 10.0 mi South 3.5 mph - N/A   Partly Cloudy
3:16 PM 35.6 °F 29.2 °F 23.0 °F 60% 29.78 in 10.0 mi ESE 8.1 mph - N/A   Scattered Clouds
3:36 PM 37.4 °F 30.8 °F 21.2 °F 52% 29.77 in 10.0 mi East 9.2 mph - N/A   Mostly Cloudy
3:56 PM 37.4 °F 31.4 °F 21.2 °F 52% 29.77 in 10.0 mi ENE 8.1 mph - N/A   Mostly Cloudy
4:16 PM 37.4 °F 32.1 °F 21.2 °F 52% 29.76 in 10.0 mi ESE 6.9 mph - N/A   Scattered Clouds
4:36 PM 37.4 °F 31.4 °F 19.4 °F 48% 29.76 in 10.0 mi ESE 8.1 mph - N/A   Partly Cloudy
4:56 PM 37.4 °F 32.1 °F 19.4 °F 48% 29.75 in 10.0 mi SE 6.9 mph - N/A   Clear
5:16 PM 37.4 °F 30.3 °F 21.2 °F 52% 29.74 in 10.0 mi SE 10.4 mph - N/A   Partly Cloudy
5:36 PM 37.4 °F 32.1 °F 19.4 °F 48% 29.74 in 10.0 mi SE 6.9 mph - N/A   Partly Cloudy
5:56 PM 37.4 °F 32.8 °F 19.4 °F 48% 29.73 in 10.0 mi ESE 5.8 mph - N/A   Clear
6:16 PM 37.4 °F 33.8 °F 19.4 °F 48% 29.73 in 10.0 mi SE 4.6 mph - N/A   Clear
6:36 PM 37.4 °F 32.8 °F 19.4 °F 48% 29.73 in 10.0 mi SE 5.8 mph - N/A   Clear
6:56 PM 37.4 °F 32.8 °F 17.6 °F 45% 29.72 in 10.0 mi ESE 5.8 mph - N/A   Scattered Clouds
7:16 PM 37.4 °F 33.8 °F 17.6 °F 45% 29.71 in 10.0 mi ESE 4.6 mph - N/A   Partly Cloudy
7:36 PM 37.4 °F 32.8 °F 19.4 °F 48% 29.71 in 10.0 mi ENE 5.8 mph - N/A   Clear
7:56 PM 35.6 °F 30.7 °F 19.4 °F 52% 29.71 in 10.0 mi NE 5.8 mph - N/A   Clear
8:16 PM 33.8 °F 28.6 °F 21.2 °F 60% 29.71 in 10.0 mi NE 5.8 mph - N/A   Clear
8:36 PM 33.8 °F - 19.4 °F 56% 29.71 in 10.0 mi Calm Calm - N/A   Clear
8:56 PM 30.2 °F 24.3 °F 19.4 °F 64% 29.71 in 10.0 mi North 5.8 mph - N/A   Clear
9:16 PM 30.2 °F 26.7 °F 19.4 °F 64% 29.71 in 10.0 mi North 3.5 mph - N/A   Clear
9:36 PM 30.2 °F - 19.4 °F 64% 29.71 in 10.0 mi Calm Calm - N/A   Clear
9:56 PM 30.2 °F 24.3 °F 19.4 °F 64% 29.71 in 10.0 mi SE 5.8 mph - N/A   Clear
10:16 PM 28.4 °F 23.3 °F 19.4 °F 69% 29.71 in 10.0 mi ESE 4.6 mph - N/A   Clear
10:36 PM 26.6 °F 21.2 °F 19.4 °F 74% 29.71 in 10.0 mi ESE 4.6 mph - N/A   Clear
10:56 PM 26.6 °F 22.6 °F 19.4 °F 74% 29.71 in 10.0 mi ESE 3.5 mph - N/A   Clear
11:16 PM 24.8 °F 17.9 °F 19.4 °F 80% 29.71 in 10.0 mi SSE 5.8 mph - N/A   Clear
11:36 PM 24.8 °F 17.9 °F 19.4 °F 80% 29.71 in 10.0 mi SE 5.8 mph - N/A   Clear
11:56 PM 26.6 °F 19.1 °F 21.2 °F 80% 29.71 in 10.0 mi SE 6.9 mph - N/A   Clear